Time,TemperatureF,DewpointF,PressureIn,WindDirection,WindDirectionDegrees,WindSpeedMPH,WindSpeedGustMPH,Humidity,HourlyPrecipIn,Conditions,Clouds,dailyrainin,SoftwareType,DateUTC
2013-03-24 00:00:00,27.5,24.7,29.99,WNW,292,0.0,0.0,89,0.00,,,0.00,Wunderground v.1.15,2013-03-24 04:00:00,
2013-03-24 00:01:00,27.5,24.4,29.99,WNW,292,0.0,0.0,88,0.00,,,0.00,Wunderground v.1.15,2013-03-24 04:01:00,
2013-03-24 00:06:00,27.3,23.9,29.99,WNW,292,0.0,2.0,87,0.00,,,0.00,Wunderground v.1.15,2013-03-24 04:06:00,
2013-03-24 00:10:00,27.3,23.7,29.99,WNW,292,0.0,2.0,86,0.00,,,0.00,Wunderground v.1.15,2013-03-24 04:10:00,
2013-03-24 00:15:00,27.3,23.7,29.99,WNW,292,0.0,2.0,86,0.00,,,0.00,Wunderground v.1.15,2013-03-24 04:15:00,
2013-03-24 00:20:00,27.5,23.9,29.99,WNW,292,0.0,2.0,86,0.00,,,0.00,Wunderground v.1.15,2013-03-24 04:20:00,
2013-03-24 00:26:00,27.5,23.3,29.99,WNW,292,0.0,2.0,84,0.00,,,0.00,Wunderground v.1.15,2013-03-24 04:26:00,
2013-03-24 00:32:00,27.5,23.3,29.99,WNW,292,0.0,2.0,84,0.00,,,0.00,Wunderground v.1.15,2013-03-24 04:32:00,
2013-03-24 00:38:00,27.5,23.3,29.99,WNW,292,0.0,2.0,84,0.00,,,0.00,Wunderground v.1.15,2013-03-24 04:38:00,
2013-03-24 00:45:00,27.5,23.6,29.99,WNW,292,0.0,2.0,85,0.00,,,0.00,Wunderground v.1.15,2013-03-24 04:45:00,
2013-03-24 00:50:00,27.5,23.6,29.99,WNW,292,0.0,2.0,85,0.00,,,0.00,Wunderground v.1.15,2013-03-24 04:50:00,
2013-03-24 00:55:00,27.6,24.0,29.99,WNW,292,0.0,2.0,86,0.00,,,0.00,Wunderground v.1.15,2013-03-24 04:55:00,
2013-03-24 01:00:00,27.6,24.0,29.98,WNW,292,0.0,2.0,86,0.00,,,0.00,Wunderground v.1.15,2013-03-24 05:00:00,
2013-03-24 01:06:00,27.5,23.9,29.98,WNW,292,0.0,2.0,86,0.00,,,0.00,Wunderground v.1.15,2013-03-24 05:06:00,
2013-03-24 01:12:00,27.3,23.7,29.98,WNW,292,0.0,2.0,86,0.00,,,0.00,Wunderground v.1.15,2013-03-24 05:12:00,
2013-03-24 01:17:00,27.3,23.9,29.98,WNW,292,0.0,2.0,87,0.00,,,0.00,Wunderground v.1.15,2013-03-24 05:17:00,
2013-03-24 01:23:00,27.2,23.8,29.98,WNW,292,0.0,2.0,87,0.00,,,0.00,Wunderground v.1.15,2013-03-24 05:23:00,
2013-03-24 01:28:00,27.0,23.6,29.98,WNW,292,0.0,2.0,87,0.00,,,0.00,Wunderground v.1.15,2013-03-24 05:28:00,
2013-03-24 01:35:00,26.9,23.8,29.98,WNW,292,0.0,2.0,88,0.00,,,0.00,Wunderground v.1.15,2013-03-24 05:35:00,
2013-03-24 01:40:00,26.9,23.8,29.98,WNW,292,0.0,2.0,88,0.00,,,0.00,Wunderground v.1.15,2013-03-24 05:40:00,
2013-03-24 01:45:00,26.9,24.1,30.00,WNW,292,0.0,2.0,89,0.00,,,0.00,Wunderground v.1.15,2013-03-24 05:45:00,
2013-03-24 01:51:00,26.7,24.9,30.00,WNW,292,0.0,2.0,93,0.00,,,0.00,Wunderground v.1.15,2013-03-24 05:51:00,
2013-03-24 01:56:00,26.7,25.7,30.00,WNW,292,0.0,2.0,96,0.00,,,0.00,Wunderground v.1.15,2013-03-24 05:56:00,
2013-03-24 02:02:00,26.6,25.6,29.99,WNW,292,0.0,2.0,96,0.00,,,0.00,Wunderground v.1.15,2013-03-24 06:02:00,
2013-03-24 02:07:00,26.3,25.6,29.99,WNW,292,0.0,2.0,97,0.00,,,0.00,Wunderground v.1.15,2013-03-24 06:07:00,
2013-03-24 02:13:00,26.0,25.5,29.99,WNW,292,0.0,0.0,98,0.00,,,0.00,Wunderground v.1.15,2013-03-24 06:13:00,
2013-03-24 02:18:00,26.0,25.5,29.98,WNW,292,0.0,0.0,98,0.00,,,0.00,Wunderground v.1.15,2013-03-24 06:18:00,
2013-03-24 02:25:00,25.8,25.8,29.98,WNW,292,0.0,0.0,100,0.00,,,0.00,Wunderground v.1.15,2013-03-24 06:25:00,
2013-03-24 02:30:00,25.8,25.8,29.99,WNW,292,0.0,0.0,100,0.00,,,0.00,Wunderground v.1.15,2013-03-24 06:30:00,
2013-03-24 02:35:00,25.7,25.7,29.99,WNW,292,0.0,0.0,100,0.00,,,0.00,Wunderground v.1.15,2013-03-24 06:35:00,
2013-03-24 02:40:00,25.7,25.7,29.99,WNW,292,0.0,0.0,100,0.00,,,0.00,Wunderground v.1.15,2013-03-24 06:40:00,
2013-03-24 02:46:00,25.7,25.7,29.98,WNW,292,0.0,0.0,100,0.00,,,0.00,Wunderground v.1.15,2013-03-24 06:46:00,
2013-03-24 02:52:00,25.7,25.7,29.98,WNW,292,0.0,0.0,100,0.00,,,0.00,Wunderground v.1.15,2013-03-24 06:52:00,
2013-03-24 02:57:00,25.7,25.7,29.98,WNW,292,0.0,0.0,100,0.00,,,0.00,Wunderground v.1.15,2013-03-24 06:57:00,
2013-03-24 03:03:00,25.7,25.7,29.97,WNW,292,0.0,0.0,100,0.00,,,0.00,Wunderground v.1.15,2013-03-24 07:03:00,
2013-03-24 03:10:00,25.8,25.8,29.97,WNW,292,0.0,0.0,100,0.00,,,0.00,Wunderground v.1.15,2013-03-24 07:10:00,
2013-03-24 03:17:00,26.0,26.0,29.97,WNW,292,0.0,0.0,100,0.00,,,0.00,Wunderground v.1.15,2013-03-24 07:17:00,
2013-03-24 03:22:00,26.0,26.0,29.97,WNW,292,0.0,0.0,100,0.00,,,0.00,Wunderground v.1.15,2013-03-24 07:22:00,
2013-03-24 03:28:00,26.0,26.0,29.97,WNW,292,0.0,0.0,100,0.00,,,0.00,Wunderground v.1.15,2013-03-24 07:28:00,
2013-03-24 03:33:00,26.1,26.1,29.98,WNW,292,0.0,0.0,100,0.00,,,0.00,Wunderground v.1.15,2013-03-24 07:33:00,
2013-03-24 03:39:00,26.3,26.3,29.98,WNW,292,0.0,0.0,100,0.00,,,0.00,Wunderground v.1.15,2013-03-24 07:39:00,
2013-03-24 03:44:00,26.4,26.4,29.98,WNW,292,0.0,2.0,100,0.00,,,0.00,Wunderground v.1.15,2013-03-24 07:44:00,
2013-03-24 03:50:00,26.4,26.4,29.98,WNW,292,0.0,0.0,100,0.00,,,0.00,Wunderground v.1.15,2013-03-24 07:50:00,
2013-03-24 03:56:00,26.6,26.6,29.98,WNW,292,0.0,1.0,100,0.00,,,0.00,Wunderground v.1.15,2013-03-24 07:56:00,
2013-03-24 04:01:00,26.7,26.7,29.97,WNW,292,0.0,0.0,100,0.00,,,0.00,Wunderground v.1.15,2013-03-24 08:01:00,
2013-03-24 04:06:00,26.7,26.7,29.97,WNW,292,0.0,3.0,100,0.00,,,0.00,Wunderground v.1.15,2013-03-24 08:06:00,
2013-03-24 04:12:00,26.9,26.9,29.97,WNW,292,0.0,3.0,100,0.00,,,0.00,Wunderground v.1.15,2013-03-24 08:12:00,
2013-03-24 04:18:00,26.9,26.9,29.96,WNW,292,0.0,3.0,100,0.00,,,0.00,Wunderground v.1.15,2013-03-24 08:18:00,
2013-03-24 04:23:00,26.9,26.9,29.96,WNW,292,0.0,3.0,100,0.00,,,0.00,Wunderground v.1.15,2013-03-24 08:23:00,
2013-03-24 04:29:00,27.0,27.0,29.96,WNW,292,0.0,3.0,100,0.00,,,0.00,Wunderground v.1.15,2013-03-24 08:29:00,
2013-03-24 04:35:00,27.0,27.0,29.96,WNW,292,0.0,3.0,100,0.00,,,0.00,Wunderground v.1.15,2013-03-24 08:35:00,
2013-03-24 04:42:00,27.0,27.0,29.96,WNW,292,0.0,3.0,100,0.00,,,0.00,Wunderground v.1.15,2013-03-24 08:42:00,
2013-03-24 04:48:00,27.2,27.2,29.96,WNW,292,0.0,3.0,100,0.00,,,0.00,Wunderground v.1.15,2013-03-24 08:48:00,
2013-03-24 04:53:00,27.2,27.2,29.96,WNW,292,0.0,3.0,100,0.00,,,0.00,Wunderground v.1.15,2013-03-24 08:53:00,
2013-03-24 04:59:00,27.2,27.0,29.96,WNW,292,0.0,3.0,99,0.00,,,0.00,Wunderground v.1.15,2013-03-24 08:59:00,
2013-03-24 05:05:00,27.2,27.2,29.95,WNW,292,0.0,3.0,100,0.00,,,0.00,Wunderground v.1.15,2013-03-24 09:05:00,
2013-03-24 05:12:00,27.0,27.0,29.95,WNW,292,0.0,2.0,100,0.00,,,0.00,Wunderground v.1.15,2013-03-24 09:12:00,
2013-03-24 05:17:00,27.0,27.0,29.95,WNW,292,0.0,2.0,100,0.00,,,0.00,Wunderground v.1.15,2013-03-24 09:17:00,
2013-03-24 05:23:00,27.0,26.8,29.95,WNW,292,0.0,2.0,99,0.00,,,0.00,Wunderground v.1.15,2013-03-24 09:23:00,
2013-03-24 05:28:00,27.0,27.0,29.95,WNW,292,0.0,2.0,100,0.00,,,0.00,Wunderground v.1.15,2013-03-24 09:28:00,
2013-03-24 05:34:00,27.0,27.0,29.94,WNW,292,0.0,2.0,100,0.00,,,0.00,Wunderground v.1.15,2013-03-24 09:34:00,
2013-03-24 05:39:00,27.2,27.2,29.94,WNW,292,0.0,2.0,100,0.00,,,0.00,Wunderground v.1.15,2013-03-24 09:39:00,
2013-03-24 05:45:00,27.2,27.2,29.94,WNW,292,0.0,2.0,100,0.00,,,0.00,Wunderground v.1.15,2013-03-24 09:45:00,
2013-03-24 05:50:00,27.2,27.2,29.94,WNW,292,0.0,2.0,100,0.00,,,0.00,Wunderground v.1.15,2013-03-24 09:50:00,
2013-03-24 05:57:00,27.2,27.2,29.94,WNW,292,0.0,2.0,100,0.00,,,0.00,Wunderground v.1.15,2013-03-24 09:57:00,
2013-03-24 06:03:00,27.2,27.2,29.93,WNW,292,0.0,2.0,100,0.00,,,0.00,Wunderground v.1.15,2013-03-24 10:03:00,
2013-03-24 06:08:00,27.2,27.2,29.93,WNW,292,0.0,3.0,100,0.00,,,0.00,Wunderground v.1.15,2013-03-24 10:08:00,
2013-03-24 06:14:00,27.2,27.2,29.93,WNW,292,0.0,2.0,100,0.00,,,0.00,Wunderground v.1.15,2013-03-24 10:14:00,
2013-03-24 06:19:00,27.2,27.2,29.93,WNW,292,0.0,2.0,100,0.00,,,0.00,Wunderground v.1.15,2013-03-24 10:19:00,
2013-03-24 06:25:00,27.2,27.2,29.93,WNW,292,0.0,2.0,100,0.00,,,0.00,Wunderground v.1.15,2013-03-24 10:25:00,
2013-03-24 06:30:00,27.2,27.2,29.92,WNW,292,0.0,2.0,100,0.00,,,0.00,Wunderground v.1.15,2013-03-24 10:30:00,
2013-03-24 06:37:00,27.2,27.2,29.92,WNW,292,0.0,2.0,100,0.00,,,0.00,Wunderground v.1.15,2013-03-24 10:37:00,
2013-03-24 06:42:00,27.2,27.2,29.92,WNW,292,0.0,2.0,100,0.00,,,0.00,Wunderground v.1.15,2013-03-24 10:42:00,
2013-03-24 06:48:00,27.2,27.2,29.92,WNW,292,0.0,2.0,100,0.00,,,0.00,Wunderground v.1.15,2013-03-24 10:48:00,
2013-03-24 06:54:00,27.3,27.3,29.92,ENE,68,0.0,2.0,100,0.00,,,0.00,Wunderground v.1.15,2013-03-24 10:54:00,
2013-03-24 06:59:00,27.3,27.3,29.92,ENE,68,0.0,2.0,100,0.00,,,0.00,Wunderground v.1.15,2013-03-24 10:59:00,
2013-03-24 07:05:00,27.3,27.3,29.91,ENE,69,0.0,3.0,100,0.00,,,0.00,Wunderground v.1.15,2013-03-24 11:05:00,
2013-03-24 07:11:00,27.5,27.5,29.91,East,80,0.0,3.0,100,0.00,,,0.00,Wunderground v.1.15,2013-03-24 11:11:00,
2013-03-24 07:17:00,27.5,27.5,29.92,East,80,0.0,3.0,100,0.00,,,0.00,Wunderground v.1.15,2013-03-24 11:17:00,
2013-03-24 07:22:00,27.5,27.3,29.92,East,80,0.0,3.0,99,0.00,,,0.00,Wunderground v.1.15,2013-03-24 11:22:00,
2013-03-24 07:29:00,27.6,27.6,29.92,NE,51,0.0,3.0,100,0.00,,,0.00,Wunderground v.1.15,2013-03-24 11:29:00,
2013-03-24 07:34:00,27.6,27.6,29.91,NE,51,0.0,3.0,100,0.00,,,0.00,Wunderground v.1.15,2013-03-24 11:34:00,
2013-03-24 07:39:00,27.6,27.6,29.91,NE,51,0.0,3.0,100,0.00,,,0.00,Wunderground v.1.15,2013-03-24 11:39:00,
2013-03-24 07:45:00,27.6,27.6,29.90,NE,51,0.0,3.0,100,0.00,,,0.00,Wunderground v.1.15,2013-03-24 11:45:00,
2013-03-24 07:50:00,27.6,27.6,29.90,NE,51,0.0,3.0,100,0.00,,,0.00,Wunderground v.1.15,2013-03-24 11:50:00,
2013-03-24 07:56:00,27.6,27.6,29.90,NE,48,0.0,3.0,100,0.00,,,0.00,Wunderground v.1.15,2013-03-24 11:56:00,
2013-03-24 08:01:00,27.8,27.8,29.90,NE,48,0.0,3.0,100,0.00,,,0.00,Wunderground v.1.15,2013-03-24 12:01:00,
2013-03-24 08:07:00,27.8,27.8,29.90,NE,48,0.0,3.0,100,0.00,,,0.00,Wunderground v.1.15,2013-03-24 12:07:00,
2013-03-24 08:14:00,27.8,27.8,29.90,NE,48,0.0,2.0,100,0.00,,,0.00,Wunderground v.1.15,2013-03-24 12:14:00,
2013-03-24 08:19:00,27.9,27.9,29.90,NE,48,0.0,2.0,100,0.00,,,0.00,Wunderground v.1.15,2013-03-24 12:19:00,
2013-03-24 08:24:00,27.9,27.7,29.90,NE,48,0.0,2.0,99,0.00,,,0.00,Wunderground v.1.15,2013-03-24 12:24:00,
2013-03-24 08:29:00,28.1,28.1,29.90,NNE,18,0.0,2.0,100,0.00,,,0.00,Wunderground v.1.15,2013-03-24 12:29:00,
2013-03-24 08:35:00,28.1,28.1,29.90,NNE,18,0.0,2.0,100,0.00,,,0.00,Wunderground v.1.15,2013-03-24 12:35:00,
2013-03-24 08:41:00,28.2,28.0,29.90,NNE,18,0.0,2.0,99,0.00,,,0.00,Wunderground v.1.15,2013-03-24 12:41:00,
2013-03-24 08:46:00,28.2,27.7,29.89,NNE,18,1.0,2.0,98,0.00,,,0.00,Wunderground v.1.15,2013-03-24 12:46:00,
2013-03-24 08:52:00,28.4,27.4,29.89,NNE,30,1.0,2.0,96,0.00,,,0.00,Wunderground v.1.15,2013-03-24 12:52:00,
2013-03-24 08:57:00,28.4,27.7,29.89,NE,55,0.0,2.0,97,0.00,,,0.00,Wunderground v.1.15,2013-03-24 12:57:00,
2013-03-24 09:02:00,28.5,27.3,29.89,North,6,1.0,2.0,95,0.00,,,0.00,Wunderground v.1.15,2013-03-24 13:02:00,
2013-03-24 09:09:00,28.5,27.3,29.89,NNE,18,1.0,5.0,95,0.00,,,0.00,Wunderground v.1.15,2013-03-24 13:09:00,
2013-03-24 09:14:00,28.5,27.5,29.89,NE,49,1.0,5.0,96,0.00,,,0.00,Wunderground v.1.15,2013-03-24 13:14:00,
2013-03-24 09:19:00,28.7,27.7,29.89,ENE,65,0.0,5.0,96,0.00,,,0.00,Wunderground v.1.15,2013-03-24 13:19:00,
2013-03-24 09:24:00,28.7,27.4,29.89,NE,56,0.0,5.0,95,0.00,,,0.00,Wunderground v.1.15,2013-03-24 13:24:00,
2013-03-24 09:30:00,28.8,27.3,29.88,ENE,64,1.0,1.0,94,0.00,,,0.00,Wunderground v.1.15,2013-03-24 13:30:00,
2013-03-24 09:35:00,28.8,27.3,29.88,ENE,66,1.0,5.0,94,0.00,,,0.00,Wunderground v.1.15,2013-03-24 13:35:00,
2013-03-24 09:40:00,28.8,27.0,29.88,ENE,64,1.0,5.0,93,0.00,,,0.00,Wunderground v.1.15,2013-03-24 13:40:00,
2013-03-24 09:46:00,29.0,27.2,29.88,ENE,64,1.0,5.0,93,0.00,,,0.00,Wunderground v.1.15,2013-03-24 13:46:00,
2013-03-24 09:51:00,29.0,27.2,29.88,NE,54,0.0,5.0,93,0.00,,,0.00,Wunderground v.1.15,2013-03-24 13:51:00,
2013-03-24 09:57:00,29.1,27.3,29.88,NE,54,0.0,5.0,93,0.00,,,0.00,Wunderground v.1.15,2013-03-24 13:57:00,
2013-03-24 10:02:00,29.3,27.3,29.86,NE,52,0.0,5.0,92,0.00,,,0.00,Wunderground v.1.15,2013-03-24 14:02:00,
2013-03-24 10:07:00,29.4,26.8,29.86,NE,54,1.0,5.0,90,0.00,,,0.00,Wunderground v.1.15,2013-03-24 14:07:00,
2013-03-24 10:14:00,29.5,26.7,29.86,NNE,13,1.0,6.0,89,0.00,,,0.00,Wunderground v.1.15,2013-03-24 14:14:00,
2013-03-24 10:19:00,29.7,26.3,29.85,WNW,301,1.0,6.0,87,0.00,,,0.00,Wunderground v.1.15,2013-03-24 14:19:00,
2013-03-24 10:24:00,29.8,26.1,29.85,NNE,23,2.0,9.0,86,0.00,,,0.00,Wunderground v.1.15,2013-03-24 14:24:00,
2013-03-24 10:29:00,30.0,26.3,29.85,ENE,59,2.0,9.0,86,0.00,,,0.00,Wunderground v.1.15,2013-03-24 14:29:00,
2013-03-24 10:35:00,30.3,26.0,29.85,NE,54,2.0,5.0,84,0.00,,,0.00,Wunderground v.1.15,2013-03-24 14:35:00,
2013-03-24 10:40:00,30.4,26.4,29.85,North,7,1.0,1.0,85,0.00,,,0.00,Wunderground v.1.15,2013-03-24 14:40:00,
2013-03-24 10:46:00,30.7,26.1,29.85,NNE,32,1.0,5.0,83,0.00,,,0.00,Wunderground v.1.15,2013-03-24 14:46:00,
2013-03-24 10:52:00,31.0,26.1,29.85,NE,37,1.0,5.0,82,0.00,,,0.00,Wunderground v.1.15,2013-03-24 14:52:00,
2013-03-24 10:57:00,31.2,26.3,29.85,NE,44,1.0,5.0,82,0.00,,,0.00,Wunderground v.1.15,2013-03-24 14:57:00,
2013-03-24 11:02:00,31.5,26.0,29.85,NE,48,1.0,5.0,80,0.00,,,0.00,Wunderground v.1.15,2013-03-24 15:02:00,
2013-03-24 11:09:00,31.8,26.3,29.85,ENE,65,1.0,8.0,80,0.00,,,0.00,Wunderground v.1.15,2013-03-24 15:09:00,
2013-03-24 11:14:00,32.1,26.6,29.85,NE,55,1.0,8.0,80,0.00,,,0.00,Wunderground v.1.15,2013-03-24 15:14:00,
2013-03-24 11:20:00,32.1,25.7,29.83,ENE,65,2.0,8.0,77,0.00,,,0.00,Wunderground v.1.15,2013-03-24 15:20:00,
2013-03-24 11:25:00,32.4,26.0,29.83,ESE,116,2.0,8.0,77,0.00,,,0.00,Wunderground v.1.15,2013-03-24 15:25:00,
2013-03-24 11:30:00,33.2,26.5,29.82,NE,34,2.0,8.0,76,0.00,,,0.00,Wunderground v.1.15,2013-03-24 15:30:00,
2013-03-24 11:35:00,34.3,25.9,29.82,ENE,72,3.0,8.0,71,0.00,,,0.00,Wunderground v.1.15,2013-03-24 15:35:00,
2013-03-24 11:41:00,34.9,26.1,29.82,NE,34,3.0,8.0,70,0.00,,,0.00,Wunderground v.1.15,2013-03-24 15:41:00,
2013-03-24 11:47:00,35.2,26.4,29.80,ENE,62,3.0,8.0,70,0.00,,,0.00,Wunderground v.1.15,2013-03-24 15:47:00,
2013-03-24 11:52:00,35.2,26.0,29.80,ENE,75,3.0,8.0,69,0.00,,,0.00,Wunderground v.1.15,2013-03-24 15:52:00,
2013-03-24 11:59:00,35.2,26.0,29.80,NE,55,4.0,8.0,69,0.00,,,0.00,Wunderground v.1.15,2013-03-24 15:59:00,
2013-03-24 12:04:00,35.2,25.0,29.79,NE,56,5.0,8.0,66,0.00,,,0.00,Wunderground v.1.15,2013-03-24 16:04:00,
2013-03-24 12:09:00,35.0,24.0,29.79,ESE,104,5.0,11.0,64,0.00,,,0.00,Wunderground v.1.15,2013-03-24 16:09:00,
2013-03-24 12:15:00,35.0,24.4,29.78,ENE,58,5.0,11.0,65,0.00,,,0.00,Wunderground v.1.15,2013-03-24 16:15:00,
2013-03-24 12:21:00,35.2,25.0,29.78,NE,54,4.0,4.0,66,0.00,,,0.00,Wunderground v.1.15,2013-03-24 16:21:00,
2013-03-24 12:27:00,35.8,25.2,29.78,NE,54,3.0,11.0,65,0.00,,,0.00,Wunderground v.1.15,2013-03-24 16:27:00,
2013-03-24 12:32:00,35.8,24.8,29.77,ENE,78,3.0,11.0,64,0.00,,,0.00,Wunderground v.1.15,2013-03-24 16:32:00,
2013-03-24 12:37:00,35.8,24.4,29.77,ENE,64,3.0,11.0,63,0.00,,,0.00,Wunderground v.1.15,2013-03-24 16:37:00,
2013-03-24 12:44:00,35.6,23.1,29.77,North,4,3.0,11.0,60,0.00,,,0.00,Wunderground v.1.15,2013-03-24 16:44:00,
2013-03-24 12:49:00,35.3,23.6,29.78,ENE,62,4.0,11.0,62,0.00,,,0.00,Wunderground v.1.15,2013-03-24 16:49:00,
2013-03-24 12:54:00,35.6,23.1,29.78,NE,55,4.0,11.0,60,0.00,,,0.00,Wunderground v.1.15,2013-03-24 16:54:00,
2013-03-24 12:59:00,35.9,24.5,29.77,ENE,65,2.0,11.0,63,0.00,,,0.00,Wunderground v.1.15,2013-03-24 16:59:00,
2013-03-24 13:06:00,35.8,23.7,29.77,NE,37,3.0,11.0,61,0.00,,,0.00,Wunderground v.1.15,2013-03-24 17:06:00,
2013-03-24 13:12:00,35.6,23.5,29.77,East,85,4.0,4.0,61,0.00,,,0.00,Wunderground v.1.15,2013-03-24 17:12:00,
2013-03-24 13:17:00,36.0,23.8,29.77,NE,47,3.0,11.0,61,0.00,,,0.00,Wunderground v.1.15,2013-03-24 17:17:00,
2013-03-24 13:22:00,35.9,23.4,29.77,ENE,66,4.0,11.0,60,0.00,,,0.00,Wunderground v.1.15,2013-03-24 17:22:00,
2013-03-24 13:27:00,36.2,23.6,29.77,ENE,59,3.0,11.0,60,0.00,,,0.00,Wunderground v.1.15,2013-03-24 17:27:00,
2013-03-24 13:33:00,36.6,24.4,29.76,ENE,65,2.0,6.0,61,0.00,,,0.00,Wunderground v.1.15,2013-03-24 17:33:00,
2013-03-24 13:39:00,36.8,25.4,29.76,North,350,3.0,11.0,63,0.00,,,0.00,Wunderground v.1.15,2013-03-24 17:39:00,
2013-03-24 13:44:00,37.2,24.2,29.76,ENE,71,3.0,11.0,59,0.00,,,0.00,Wunderground v.1.15,2013-03-24 17:44:00,
2013-03-24 13:50:00,37.6,23.7,29.75,ENE,73,3.0,11.0,57,0.00,,,0.00,Wunderground v.1.15,2013-03-24 17:50:00,
2013-03-24 13:55:00,37.6,24.6,29.75,NE,42,3.0,11.0,59,0.00,,,0.00,Wunderground v.1.15,2013-03-24 17:55:00,
2013-03-24 14:00:00,37.5,23.2,29.74,ENE,69,4.0,4.0,56,0.00,,,0.00,Wunderground v.1.15,2013-03-24 18:00:00,
2013-03-24 14:06:00,37.9,24.4,29.74,NNE,16,3.0,16.0,58,0.00,,,0.00,Wunderground v.1.15,2013-03-24 18:06:00,
2013-03-24 14:12:00,38.2,24.3,29.74,ENE,66,4.0,6.0,57,0.00,,,0.00,Wunderground v.1.15,2013-03-24 18:12:00,
2013-03-24 14:17:00,38.0,23.7,29.73,East,86,4.0,16.0,56,0.00,,,0.00,Wunderground v.1.15,2013-03-24 18:17:00,
2013-03-24 14:23:00,37.9,24.0,29.73,NE,49,4.0,16.0,57,0.00,,,0.00,Wunderground v.1.15,2013-03-24 18:23:00,
2013-03-24 14:29:00,38.0,24.9,29.73,NNE,18,4.0,16.0,59,0.00,,,0.00,Wunderground v.1.15,2013-03-24 18:29:00,
2013-03-24 14:35:00,38.5,24.6,29.71,North,0,4.0,16.0,57,0.00,,,0.00,Wunderground v.1.15,2013-03-24 18:35:00,
2013-03-24 14:40:00,38.5,24.6,29.71,NE,56,4.0,16.0,57,0.00,,,0.00,Wunderground v.1.15,2013-03-24 18:40:00,
2013-03-24 14:46:00,38.5,25.0,29.70,NE,51,3.0,16.0,58,0.00,,,0.00,Wunderground v.1.15,2013-03-24 18:46:00,
2013-03-24 14:52:00,38.5,24.6,29.70,East,79,4.0,16.0,57,0.00,,,0.00,Wunderground v.1.15,2013-03-24 18:52:00,
2013-03-24 14:57:00,38.3,24.4,29.70,NE,41,5.0,16.0,57,0.00,,,0.00,Wunderground v.1.15,2013-03-24 18:57:00,
2013-03-24 15:03:00,38.2,24.3,29.69,NE,51,4.0,16.0,57,0.00,,,0.00,Wunderground v.1.15,2013-03-24 19:03:00,
2013-03-24 15:08:00,38.0,24.1,29.69,ENE,68,3.0,16.0,57,0.00,,,0.00,Wunderground v.1.15,2013-03-24 19:08:00,
2013-03-24 15:13:00,37.8,24.7,29.69,NE,51,3.0,14.0,59,0.00,,,0.00,Wunderground v.1.15,2013-03-24 19:13:00,
2013-03-24 15:19:00,37.9,24.4,29.69,ENE,65,4.0,14.0,58,0.00,,,0.00,Wunderground v.1.15,2013-03-24 19:19:00,
2013-03-24 15:24:00,37.8,24.7,29.69,East,79,4.0,14.0,59,0.00,,,0.00,Wunderground v.1.15,2013-03-24 19:24:00,
2013-03-24 15:30:00,37.5,24.9,29.68,NNE,20,5.0,14.0,60,0.00,,,0.00,Wunderground v.1.15,2013-03-24 19:30:00,
2013-03-24 15:36:00,37.0,24.0,29.68,East,80,6.0,14.0,59,0.00,,,0.00,Wunderground v.1.15,2013-03-24 19:36:00,
2013-03-24 15:41:00,36.9,23.9,29.68,ENE,78,6.0,6.0,59,0.00,,,0.00,Wunderground v.1.15,2013-03-24 19:41:00,
2013-03-24 15:48:00,37.0,24.0,29.66,NNW,342,5.0,14.0,59,0.00,,,0.00,Wunderground v.1.15,2013-03-24 19:48:00,
2013-03-24 15:53:00,36.8,23.8,29.66,NE,40,4.0,14.0,59,0.00,,,0.00,Wunderground v.1.15,2013-03-24 19:53:00,
2013-03-24 15:58:00,37.0,24.8,29.66,ENE,62,4.0,14.0,61,0.00,,,0.00,Wunderground v.1.15,2013-03-24 19:58:00,
2013-03-24 16:04:00,37.2,24.2,29.65,NNW,346,5.0,14.0,59,0.00,,,0.00,Wunderground v.1.15,2013-03-24 20:04:00,
2013-03-24 16:09:00,37.5,24.5,29.65,North,1,5.0,14.0,59,0.00,,,0.00,Wunderground v.1.15,2013-03-24 20:09:00,
2013-03-24 16:15:00,37.3,23.9,29.65,East,83,5.0,14.0,58,0.00,,,0.00,Wunderground v.1.15,2013-03-24 20:15:00,
2013-03-24 16:20:00,37.5,25.3,29.65,ENE,58,5.0,14.0,61,0.00,,,0.00,Wunderground v.1.15,2013-03-24 20:20:00,
2013-03-24 16:26:00,37.3,24.3,29.65,NNE,32,5.0,14.0,59,0.00,,,0.00,Wunderground v.1.15,2013-03-24 20:26:00,
2013-03-24 16:32:00,37.6,24.6,29.63,NNE,20,5.0,14.0,59,0.00,,,0.00,Wunderground v.1.15,2013-03-24 20:32:00,
2013-03-24 16:38:00,37.5,24.1,29.63,ENE,73,5.0,14.0,58,0.00,,,0.00,Wunderground v.1.15,2013-03-24 20:38:00,
2013-03-24 16:43:00,37.3,24.3,29.63,North,356,4.0,14.0,59,0.00,,,0.00,Wunderground v.1.15,2013-03-24 20:43:00,
2013-03-24 16:48:00,37.3,24.7,29.62,NNE,28,5.0,17.0,60,0.00,,,0.00,Wunderground v.1.15,2013-03-24 20:48:00,
2013-03-24 16:54:00,37.3,25.5,29.62,NE,35,5.0,14.0,62,0.00,,,0.00,Wunderground v.1.15,2013-03-24 20:54:00,
2013-03-24 17:00:00,37.2,25.0,29.61,ENE,75,6.0,14.0,61,0.00,,,0.00,Wunderground v.1.15,2013-03-24 21:00:00,
2013-03-24 17:06:00,37.2,25.0,29.61,NE,55,6.0,19.0,61,0.00,,,0.00,Wunderground v.1.15,2013-03-24 21:06:00,
2013-03-24 17:12:00,37.0,24.4,29.61,NE,35,6.0,19.0,60,0.00,,,0.00,Wunderground v.1.15,2013-03-24 21:12:00,
2013-03-24 17:18:00,37.0,24.4,29.61,NE,45,5.0,19.0,60,0.00,,,0.00,Wunderground v.1.15,2013-03-24 21:18:00,
2013-03-24 17:24:00,36.9,25.5,29.61,NE,47,5.0,19.0,63,0.00,,,0.00,Wunderground v.1.15,2013-03-24 21:24:00,
2013-03-24 17:30:00,36.8,25.4,29.61,NNE,25,4.0,19.0,63,0.00,,,0.00,Wunderground v.1.15,2013-03-24 21:30:00,
2013-03-24 17:37:00,36.8,25.8,29.61,NNE,23,3.0,19.0,64,0.00,,,0.00,Wunderground v.1.15,2013-03-24 21:37:00,
2013-03-24 17:42:00,36.8,25.0,29.61,North,6,4.0,19.0,62,0.00,,,0.00,Wunderground v.1.15,2013-03-24 21:42:00,
2013-03-24 17:48:00,36.6,25.2,29.60,ENE,78,5.0,19.0,63,0.00,,,0.00,Wunderground v.1.15,2013-03-24 21:48:00,
2013-03-24 17:53:00,36.6,25.6,29.60,NE,37,5.0,19.0,64,0.00,,,0.00,Wunderground v.1.15,2013-03-24 21:53:00,
2013-03-24 17:59:00,36.5,25.1,29.60,NE,42,5.0,19.0,63,0.00,,,0.00,Wunderground v.1.15,2013-03-24 21:59:00,
2013-03-24 18:04:00,36.3,25.3,29.60,NNW,344,5.0,19.0,64,0.00,,,0.00,Wunderground v.1.15,2013-03-24 22:04:00,
2013-03-24 18:09:00,36.3,25.3,29.60,East,82,4.0,19.0,64,0.00,,,0.00,Wunderground v.1.15,2013-03-24 22:09:00,
2013-03-24 18:15:00,36.2,25.9,29.60,ENE,76,4.0,14.0,66,0.00,,,0.00,Wunderground v.1.15,2013-03-24 22:15:00,
2013-03-24 18:21:00,36.0,25.4,29.60,NNE,32,5.0,5.0,65,0.00,,,0.00,Wunderground v.1.15,2013-03-24 22:21:00,
2013-03-24 18:27:00,35.9,25.3,29.60,ENE,62,5.0,14.0,65,0.00,,,0.00,Wunderground v.1.15,2013-03-24 22:27:00,
2013-03-24 18:32:00,35.8,25.2,29.61,NE,54,4.0,14.0,65,0.00,,,0.00,Wunderground v.1.15,2013-03-24 22:32:00,
2013-03-24 18:38:00,35.6,26.1,29.61,NNE,23,2.0,14.0,68,0.00,,,0.00,Wunderground v.1.15,2013-03-24 22:38:00,
2013-03-24 18:44:00,35.6,25.7,29.61,ENE,68,3.0,14.0,67,0.00,,,0.00,Wunderground v.1.15,2013-03-24 22:44:00,
2013-03-24 18:50:00,35.5,26.0,29.61,NW,322,5.0,14.0,68,0.00,,,0.00,Wunderground v.1.15,2013-03-24 22:50:00,
2013-03-24 18:56:00,35.3,26.1,29.61,ENE,59,6.0,14.0,69,0.00,,,0.00,Wunderground v.1.15,2013-03-24 22:56:00,
2013-03-24 19:01:00,35.3,26.5,29.62,NE,40,5.0,14.0,70,0.00,,,0.00,Wunderground v.1.15,2013-03-24 23:01:00,
2013-03-24 19:07:00,35.2,27.1,29.62,NE,41,2.0,17.0,72,0.00,,,0.00,Wunderground v.1.15,2013-03-24 23:07:00,
2013-03-24 19:12:00,35.2,26.7,29.62,NNE,31,3.0,17.0,71,0.00,,,0.00,Wunderground v.1.15,2013-03-24 23:12:00,
2013-03-24 19:18:00,35.0,26.9,29.62,SE,127,3.0,17.0,72,0.00,,,0.00,Wunderground v.1.15,2013-03-24 23:18:00,
2013-03-24 19:23:00,35.0,27.2,29.62,NE,38,3.0,17.0,73,0.00,,,0.00,Wunderground v.1.15,2013-03-24 23:23:00,
2013-03-24 19:29:00,34.9,27.1,29.62,NNE,14,3.0,17.0,73,0.00,,,0.00,Wunderground v.1.15,2013-03-24 23:29:00,
2013-03-24 19:34:00,34.7,25.9,29.63,NE,54,3.0,17.0,70,0.00,,,0.00,Wunderground v.1.15,2013-03-24 23:34:00,
2013-03-24 19:39:00,34.7,25.9,29.63,North,0,3.0,17.0,70,0.00,,,0.00,Wunderground v.1.15,2013-03-24 23:39:00,
2013-03-24 19:44:00,34.7,25.9,29.63,NNW,344,4.0,17.0,70,0.00,,,0.00,Wunderground v.1.15,2013-03-24 23:44:00,
2013-03-24 19:50:00,34.7,25.9,29.62,North,356,5.0,5.0,70,0.00,,,0.00,Wunderground v.1.15,2013-03-24 23:50:00,
2013-03-24 19:55:00,34.6,25.5,29.62,NE,40,3.0,17.0,69,0.00,,,0.00,Wunderground v.1.15,2013-03-24 23:55:00,
2013-03-24 20:01:00,34.6,24.8,29.63,NNE,23,3.0,17.0,67,0.00,,,0.00,Wunderground v.1.15,2013-03-25 00:01:00,
2013-03-24 20:07:00,34.6,24.0,29.63,NE,41,4.0,17.0,65,0.00,,,0.00,Wunderground v.1.15,2013-03-25 00:07:00,
2013-03-24 20:12:00,34.6,24.8,29.63,North,356,3.0,14.0,67,0.00,,,0.00,Wunderground v.1.15,2013-03-25 00:12:00,
2013-03-24 20:17:00,34.6,24.8,29.63,North,356,2.0,14.0,67,0.00,,,0.00,Wunderground v.1.15,2013-03-25 00:17:00,
2013-03-24 20:23:00,34.4,24.6,29.63,NNE,14,3.0,14.0,67,0.00,,,0.00,Wunderground v.1.15,2013-03-25 00:23:00,
2013-03-24 20:29:00,34.3,25.2,29.63,NNE,31,4.0,14.0,69,0.00,,,0.00,Wunderground v.1.15,2013-03-25 00:29:00,
2013-03-24 20:34:00,34.1,24.6,29.64,North,0,4.0,15.0,68,0.00,,,0.00,Wunderground v.1.15,2013-03-25 00:34:00,
2013-03-24 20:40:00,34.0,24.9,29.64,North,4,5.0,5.0,69,0.00,,,0.00,Wunderground v.1.15,2013-03-25 00:40:00,
2013-03-24 20:45:00,33.8,24.0,29.63,NNE,14,5.0,14.0,67,0.00,,,0.00,Wunderground v.1.15,2013-03-25 00:45:00,
2013-03-24 20:51:00,33.7,25.0,29.63,NNE,14,4.0,14.0,70,0.00,,,0.00,Wunderground v.1.15,2013-03-25 00:51:00,
2013-03-24 20:56:00,33.5,24.4,29.63,ENE,75,4.0,14.0,69,0.00,,,0.00,Wunderground v.1.15,2013-03-25 00:56:00,
2013-03-24 21:02:00,33.2,23.1,29.63,NNE,28,5.0,14.0,66,0.00,,,0.00,Wunderground v.1.15,2013-03-25 01:02:00,
2013-03-24 21:07:00,33.2,23.1,29.63,NNE,13,4.0,15.0,66,0.00,,,0.00,Wunderground v.1.15,2013-03-25 01:07:00,
2013-03-24 21:14:00,32.9,22.0,29.63,NE,42,5.0,15.0,64,0.00,,,0.00,Wunderground v.1.15,2013-03-25 01:14:00,
2013-03-24 21:19:00,32.9,22.0,29.64,NE,35,5.0,15.0,64,0.00,,,0.00,Wunderground v.1.15,2013-03-25 01:19:00,
2013-03-24 21:24:00,32.8,22.0,29.64,NNE,25,4.0,15.0,64,0.00,,,0.00,Wunderground v.1.15,2013-03-25 01:24:00,
2013-03-24 21:30:00,32.7,20.7,29.63,NNW,342,5.0,15.0,61,0.00,,,0.00,Wunderground v.1.15,2013-03-25 01:30:00,
2013-03-24 21:36:00,32.5,21.3,29.63,NE,44,6.0,15.0,63,0.00,,,0.00,Wunderground v.1.15,2013-03-25 01:36:00,
2013-03-24 21:41:00,32.5,20.9,29.63,ESE,112,4.0,15.0,62,0.00,,,0.00,Wunderground v.1.15,2013-03-25 01:41:00,
2013-03-24 21:46:00,32.4,21.2,29.64,NNW,340,3.0,15.0,63,0.00,,,0.00,Wunderground v.1.15,2013-03-25 01:46:00,
2013-03-24 21:52:00,32.4,21.2,29.64,NNE,17,4.0,15.0,63,0.00,,,0.00,Wunderground v.1.15,2013-03-25 01:52:00,
2013-03-24 21:57:00,32.4,20.8,29.64,NNW,337,4.0,15.0,62,0.00,,,0.00,Wunderground v.1.15,2013-03-25 01:57:00,
2013-03-24 22:03:00,32.2,21.4,29.64,NNE,30,4.0,15.0,64,0.00,,,0.00,Wunderground v.1.15,2013-03-25 02:03:00,
2013-03-24 22:09:00,32.2,21.7,29.64,NNE,13,4.0,17.0,65,0.00,,,0.00,Wunderground v.1.15,2013-03-25 02:09:00,
2013-03-24 22:15:00,32.1,22.0,29.65,North,352,4.0,17.0,66,0.00,,,0.00,Wunderground v.1.15,2013-03-25 02:15:00,
2013-03-24 22:21:00,32.1,22.0,29.65,West,280,4.0,17.0,66,0.00,,,0.00,Wunderground v.1.15,2013-03-25 02:21:00,
2013-03-24 22:27:00,31.9,22.2,29.65,North,0,4.0,17.0,67,0.00,,,0.00,Wunderground v.1.15,2013-03-25 02:27:00,
2013-03-24 22:33:00,31.9,22.5,29.65,NE,41,5.0,17.0,68,0.00,,,0.00,Wunderground v.1.15,2013-03-25 02:33:00,
2013-03-24 22:39:00,31.9,22.9,29.65,NE,55,5.0,17.0,69,0.00,,,0.00,Wunderground v.1.15,2013-03-25 02:39:00,
2013-03-24 22:44:00,31.9,23.2,29.65,NNE,16,5.0,17.0,70,0.00,,,0.00,Wunderground v.1.15,2013-03-25 02:44:00,
2013-03-24 22:49:00,31.8,22.8,29.66,NNE,31,4.0,17.0,69,0.00,,,0.00,Wunderground v.1.15,2013-03-25 02:49:00,
2013-03-24 22:54:00,31.8,22.8,29.66,NW,313,3.0,17.0,69,0.00,,,0.00,Wunderground v.1.15,2013-03-25 02:54:00,
2013-03-24 23:00:00,31.6,22.9,29.66,North,352,3.0,17.0,70,0.00,,,0.00,Wunderground v.1.15,2013-03-25 03:00:00,
2013-03-24 23:05:00,31.5,22.1,29.66,NNE,13,4.0,17.0,68,0.00,,,0.00,Wunderground v.1.15,2013-03-25 03:05:00,
2013-03-24 23:11:00,31.3,22.6,29.66,North,7,6.0,13.0,70,0.00,,,0.00,Wunderground v.1.15,2013-03-25 03:11:00,
2013-03-24 23:17:00,31.3,22.6,29.65,NNE,20,6.0,13.0,70,0.00,,,0.00,Wunderground v.1.15,2013-03-25 03:17:00,
2013-03-24 23:22:00,31.2,22.5,29.65,North,11,5.0,13.0,70,0.00,,,0.00,Wunderground v.1.15,2013-03-25 03:22:00,
2013-03-24 23:29:00,31.2,22.9,29.65,NNE,18,4.0,13.0,71,0.00,,,0.00,Wunderground v.1.15,2013-03-25 03:29:00,
2013-03-24 23:34:00,31.2,22.9,29.65,NW,305,4.0,13.0,71,0.00,,,0.00,Wunderground v.1.15,2013-03-25 03:34:00,
2013-03-24 23:39:00,31.2,22.5,29.65,NNE,23,4.0,13.0,70,0.00,,,0.00,Wunderground v.1.15,2013-03-25 03:39:00,
2013-03-24 23:45:00,31.2,22.5,29.65,NNE,28,5.0,13.0,70,0.00,,,0.00,Wunderground v.1.15,2013-03-25 03:45:00,
2013-03-24 23:51:00,31.0,22.7,29.65,WNW,292,5.0,13.0,71,0.00,,,0.00,Wunderground v.1.15,2013-03-25 03:51:00,
2013-03-24 23:56:00,31.0,22.7,29.65,North,1,5.0,13.0,71,0.00,,,0.00,Wunderground v.1.15,2013-03-25 03:56:00,